Change the Weather History Date:

Wednesday, April 23, 2014

  Actual Average Record
Temperature  
Mean Temperature 50 °F -  
Max Temperature 57 °F 60 °F 87 °F (1973)
Min Temperature 45 °F 39 °F 24 °F (1933)
Degree Days  
Heating Degree Days 14    
Moisture  
Dew Point 42 °F    
Average Humidity 74    
Maximum Humidity 89    
Minimum Humidity 52    
Precipitation  
Precipitation 0.53 in - - ()
Sea Level Pressure  
Sea Level Pressure 29.49 in    
Wind  
Wind Speed 8 mph (WNW)    
Max Wind Speed 23 mph    
Max Gust Speed 38 mph    
Visibility 7 miles    
Events Rain    
Averages and records for this station are not official NWS values.
T = Trace of Precipitation, MM = Missing Value Source: NWS Daily Summary

Daily Weather History Graph

Daily Weather History Graph

Search for Another Location

Airport or City:

Trip Planner

Search our weather history database for the weather conditions in past years. The results will help you decide how hot, cold, wet, or windy it might be!

Date:

Astronomy

Apr. 23, 2014 Rise Set
Actual Time 5:50 AM EDT 7:35 PM EDT
Civil Twilight 5:20 AM EDT 8:05 PM EDT
Nautical Twilight 4:44 AM EDT 8:42 PM EDT
Astronomical Twilight 4:04 AM EDT 9:22 PM EDT
Moon 2:28 AM EDT (4/23) 1:32 PM EDT (4/23)
Length of Visible Light 14h 45m
Length of Day
13h 45m
Waning Crescent, 35% of the Moon is Illuminated
Apr 23
Waning Crescent
Apr 29
New
May 6
First Quarter
May 14
Full
May 21
Last Quarter

Hourly Weather History & Observations

Time (EDT) Temp. Windchill Dew Point Humidity Pressure Visibility Wind Dir Wind Speed Gust Speed Precip Events Conditions
12:54 AM 54.0 °F - 50.0 °F 86% 29.47 in 10.0 mi SSW 5.8 mph - 0.00 in   Scattered Clouds
1:54 AM 53.1 °F - 50.0 °F 89% 29.45 in 10.0 mi SSW 6.9 mph - N/A   Clear
2:54 AM 53.1 °F - 48.9 °F 86% 29.45 in 9.0 mi SSW 5.8 mph - N/A   Partly Cloudy
3:54 AM 52.0 °F - 48.9 °F 89% 29.44 in 7.0 mi SSW 4.6 mph - N/A   Overcast
4:54 AM 53.1 °F - 48.9 °F 86% 29.44 in 8.0 mi SSW 4.6 mph - N/A   Overcast
5:54 AM 52.0 °F - 48.0 °F 86% 29.45 in 10.0 mi Calm Calm - N/A   Overcast
6:54 AM 54.0 °F - 48.9 °F 83% 29.47 in 9.0 mi West 8.1 mph - N/A   Overcast
7:54 AM 54.0 °F - 46.9 °F 77% 29.47 in 10.0 mi WNW 8.1 mph - 0.00 in   Mostly Cloudy
8:54 AM 55.9 °F - 45.0 °F 67% 29.45 in 10.0 mi NW 10.4 mph 18.4 mph N/A   Mostly Cloudy
9:38 AM 54.0 °F - 44.1 °F 69% 29.47 in 10.0 mi West 9.2 mph - N/A   Overcast
9:54 AM 53.1 °F - 45.0 °F 74% 29.47 in 2.0 mi NW 5.8 mph - 0.02 in Rain Rain
10:07 AM 52.0 °F - 45.0 °F 77% 29.47 in 2.0 mi Calm Calm - 0.06 in Rain Rain
10:35 AM 51.1 °F - 46.9 °F 86% 29.47 in 2.0 mi NW 4.6 mph - 0.13 in Rain Light Rain
10:54 AM 51.1 °F - 46.9 °F 86% 29.47 in 1.2 mi WNW 4.6 mph - 0.22 in Rain Heavy Rain
11:08 AM 51.1 °F - 46.9 °F 86% 29.46 in 2.5 mi NW 6.9 mph - 0.03 in Rain Rain
11:23 AM 50.0 °F - 46.0 °F 86% 29.46 in 1.2 mi NW 10.4 mph - 0.08 in Rain Heavy Rain
11:54 AM 48.9 °F - 45.0 °F 86% 29.47 in 1.2 mi NW 8.1 mph - 0.25 in Rain Heavy Rain
12:24 PM 48.9 °F - 44.1 °F 83% 29.47 in 2.5 mi NW 9.2 mph - 0.14 in Rain Rain
12:41 PM 48.9 °F - 44.1 °F 83% 29.46 in 3.0 mi NW 11.5 mph 18.4 mph 0.20 in Rain Rain
12:54 PM 48.2 °F - 44.6 °F 87% 29.46 in 5.0 mi NW 9.2 mph 18.4 mph N/A Rain Rain
1:54 PM 48.9 °F - 42.1 °F 77% 29.47 in 10.0 mi NW 11.5 mph 19.6 mph 0.02 in Rain Light Rain
2:54 PM 51.1 °F - 39.9 °F 66% 29.46 in 10.0 mi WNW 10.4 mph 20.7 mph 0.02 in   Overcast
3:54 PM 51.8 °F - 35.6 °F 54% 29.47 in 10.0 mi NNW 18.4 mph 26.5 mph N/A   Overcast
4:54 PM 50.0 °F - 34.0 °F 54% 29.49 in 10.0 mi NNW 23.0 mph 32.2 mph N/A   Mostly Cloudy
5:54 PM 50.0 °F - 33.1 °F 52% 29.51 in 10.0 mi NW 19.6 mph 36.8 mph N/A   Overcast
6:54 PM 48.9 °F - 33.1 °F 54% 29.54 in 10.0 mi NW 17.3 mph 27.6 mph N/A   Overcast
7:54 PM 48.9 °F - 33.1 °F 54% 29.56 in 10.0 mi NW 12.7 mph 24.2 mph N/A   Mostly Cloudy
8:54 PM 48.0 °F - 32.0 °F 54% 29.58 in 10.0 mi NW 11.5 mph 21.9 mph N/A   Overcast
9:54 PM 46.9 °F - 30.9 °F 54% 29.60 in 10.0 mi NW 20.7 mph 38.0 mph N/A   Mostly Cloudy
10:54 PM 46.0 °F 38.5 °F 30.9 °F 56% 29.60 in 10.0 mi NW 19.6 mph 33.4 mph N/A   Overcast
11:54 PM 45.0 °F 37.4 °F 30.0 °F 56% 29.62 in 10.0 mi WNW 18.4 mph 26.5 mph N/A   Scattered Clouds